Location: Kershaw
(34.5481°N, 80.5823°W)
Time: 20:29:15
(UTC+00:00)

Vanguard 2 Rocket - Pass Details

Date: 30 September 2022
Orbit: 555 x 3321 km, 32.9° (Epoch: 28 November)

Event Time Altitude Azimuth Distance (km) Brightness Sun altitude
Rises 02:17:49 0° 214° (SW) 7,133 11.5 -38.5°
Reaches altitude 10° 02:23:48 10° 205° (SSW) 5,851 10.9 -39.6°
Enters shadow 02:30:28 22° 189° (S) 4,472 10.1 -40.8°
